Погода в Новотырышкине

Россия / Новосибирская область     55°17′14″N   82°24′35″E
темп.,
°C
ветер,
м/с
пор.,
м/с
влажн.,
%
обл.,
%
осадки,
мм/ч
давл.,
гПа
погр.,
м
9 марта, вт
вт901:00−11з6139198 0.6 1015401
04:00−11зюз61391100 0.0 1019484
07:00−14юз51292100 0.1 1022391
10:00−14юз6119089 0.0 1024390
13:00−10ююз7128492 0.0 1024604
16:00−8ююз7127936 0.0 1023790
19:00−10ююз6128459 0.0 1023328
22:00−12ююз5138842 0.0 1022328
10 марта, ср
ср1001:00−13ююз5138838 0.0 1021298
04:00−15ююз499015 0.0 1020156
07:00−15ю489136 0.0 1019160
10:00−12ююз488899 0.0 1019299
13:00−9ю4587100 0.0 1018327
16:00−6ююв3588100 0.0 1015332
19:00−7вюв3693100 0.0 1011142
22:000ююв71590100 0.1 1006874
11 марта, чт
чт1101:000ю91697100 1.3 1000774
04:00+2юз715100100 0.9 999689
07:00−7юз91687100 1.0 1004763
10:00−9зюз71488100 0.1 1010700
13:00−6юз71289100 0.1 1012719
16:00−5юз81384100 0.1 1013974
19:00−8юз61387100 0.1 1015538
22:00−11ю5119176 0.0 1016264
12 марта, пт
пт1201:00−9ююв5138888 0.0 1012415
04:00−5юз112070100 0.6 10081194
07:00−11юз8168369 0.6 1010637
10:00−13юз8148756 0.0 1013877
13:00−13юз8128378 0.1 1015992
16:00−14юз81184100 0.1 1016946
19:00−15зюз71288100 0.1 1016949
22:00−18зюз61489100 0.1 1019644
13 марта, сб
сб1301:00−20зюз61392100 0.1 1022591
04:00−22зюз51194100 0.0 1024354
07:00−25юз4109598 0.1 1028193
10:00−23зюз59922 0.0 1029271
13:00−18юз59861 0.0 1030452
16:00−14юз610810 0.0 1030699
19:00−16юз49880 0.0 1029212
22:00−19ююз411940 0.0 1030228